EW0533 Weather Reports


Display with metric or nautical units.
time (UTC)temp
F
wind
direction
speed
MPH
gust
MPH
rain 1hr
in
rain 24hr
in
rain mn
in
humidity
%
barometer
mb
20260906230024 96 155 1.0 5.0 0.00 0.00 0.00 16 1000.8
20260906224522 96 156 0.0 7.0 0.00 0.00 0.00 16 1000.8
20260906223034 96 155 3.0 8.0 0.00 0.00 0.00 15 1000.9
20260906221520 95 155 2.0 9.0 0.00 0.00 0.00 16 1001.0
20260906220030 96 155 1.0 7.0 0.00 0.00 0.00 15 1001.2
20260906214525 98 156 0.0 1.0 0.00 0.00 0.00 15 1001.6
20260906213013 96 155 1.0 8.0 0.00 0.00 0.00 14 1002.0
20260906211511 97 155 0.0 1.0 0.00 0.00 0.00 14 1002.1
20260906210007 96 155 3.0 8.0 0.00 0.00 0.00 13 1002.5
20260906204505 96 156 2.0 6.0 0.00 0.00 0.00 13 1002.7
20260906203003 97 155 2.0 6.0 0.00 0.00 0.00 14 1003.0
20260906201502 96 156 1.0 3.0 0.00 0.00 0.00 14 1003.3
20260906200001 97 156 0.0 1.0 0.00 0.00 0.00 14 1003.3
20260906194557 96 155 0.0 1.0 0.00 0.00 0.00 14 1003.7
20260906193056 96 155 0.0 1.0 0.00 0.00 0.00 14 1003.8
20260906191555 96 156 0.0 3.0 0.00 0.00 0.00 13 1004.1
20260906190136 95 155 0.0 3.0 0.00 0.00 0.00 15 1004.3
20260906184547 93 155 3.0 7.0 0.00 0.00 0.00 15 1004.6
20260906183056 92 155 0.0 1.0 0.00 0.00 0.00 17 1004.9
20260906181544 92 155 0.0 1.0 0.00 0.00 0.00 16 1005.4
20260906180038 93 155 0.0 1.0 0.00 0.00 0.00 19 1005.5
20260906174534 92 155 0.0 1.0 0.00 0.00 0.00 22 1005.7
20260906173031 90 155 0.0 1.0 0.00 0.00 0.00 22 1005.9
20260906171528 89 155 0.0 1.0 0.00 0.00 0.00 24 1006.0
20260906170028 85 155 0.0 5.0 0.00 0.00 0.00 28 1006.2
20260906164519 82 155 1.0 5.0 0.00 0.00 0.00 30 1006.3
20260906163019 82 155 1.0 6.0 0.00 0.00 0.00 31 1006.4
20260906161519 82 155 2.0 5.0 0.00 0.00 0.00 31 1006.4
20260906160017 82 155 2.0 5.0 0.00 0.00 0.00 30 1006.5
20260906154516 81 155 2.0 7.0 0.00 0.00 0.00 31 1006.5
20260906153021 81 155 1.0 6.0 0.00 0.00 0.00 31 1006.6
20260906151510 79 155 2.0 6.0 0.00 0.00 0.00 33 1006.6
20260906150015 77 155 2.0 6.0 0.00 0.00 0.00 35 1006.7
20260906144515 75 155 3.0 9.0 0.00 0.00 0.00 34 1006.8
20260906143014 75 155 5.0 10.0 0.00 0.00 0.00 33 1006.6
20260906141506 75 155 1.0 4.0 0.00 0.00 0.00 33 1006.6
20260906140018 73 156 1.0 5.0 0.00 0.00 0.00 35 1006.5
20260906134507 69 155 0.0 4.0 0.00 0.00 0.00 40 1006.5
20260906133004 68 155 0.0 1.0 0.00 0.00 0.00 41 1006.4
20260906131603 67 156 0.0 0.0 0.00 0.00 0.00 41 1006.2
20260906130114 67 156 0.0 3.0 0.00 0.00 0.00 42 1006.2
20260906124557 66 156 0.0 0.0 0.00 0.00 0.00 41 1006.0
20260906123055 67 156 0.0 0.0 0.00 0.00 0.00 40 1006.0
20260906121555 67 155 0.0 0.0 0.00 0.00 0.00 40 1006.0
20260906120053 67 155 0.0 0.0 0.00 0.00 0.00 41 1005.9
20260906114550 68 155 0.0 0.0 0.00 0.00 0.00 41 1005.9
20260906113049 68 156 0.0 0.0 0.00 0.00 0.00 41 1005.8
20260906111553 69 155 0.0 0.0 0.00 0.00 0.00 40 1005.8
20260906110054 70 155 0.0 0.0 0.00 0.00 0.00 39 1005.7
20260906104540 71 155 0.0 0.0 0.00 0.00 0.00 38 1005.8
20260906103039 71 155 0.0 0.0 0.00 0.00 0.00 38 1005.8
20260906101536 72 155 0.0 0.0 0.00 0.00 0.00 37 1005.8
20260906100035 72 155 0.0 0.0 0.00 0.00 0.00 36 1005.7
20260906094534 72 155 0.0 0.0 0.00 0.00 0.00 35 1005.6
20260906093046 73 155 0.0 0.0 0.00 0.00 0.00 35 1005.5
20260906091533 73 155 0.0 1.0 0.00 0.00 0.00 36 1005.4
20260906090055 72 155 0.0 0.0 0.00 0.00 0.00 36 1005.4
20260906084535 72 155 0.0 0.0 0.00 0.00 0.00 36 1005.5
20260906083039 73 155 0.0 0.0 0.00 0.00 0.00 34 1005.4
20260906081529 73 155 0.0 0.0 0.00 0.00 0.00 34 1005.5
20260906080027 74 155 0.0 0.0 0.00 0.00 0.00 33 1005.7
20260906074534 74 156 0.0 0.0 0.00 0.00 0.00 34 1005.6
20260906073025 74 155 0.0 0.0 0.00 0.00 0.00 34 1005.8
20260906071524 74 155 0.0 0.0 0.00 0.00 0.00 34 1005.8
20260906070021 75 156 0.0 1.0 0.00 0.00 0.00 33 1005.8
20260906064517 77 155 0.0 0.0 0.00 0.00 0.00 31 1005.8
20260906063014 78 155 0.0 1.0 0.00 0.00 0.00 30 1005.8
20260906061510 78 155 0.0 2.0 0.00 0.00 0.00 29 1005.4
20260906060009 78 155 0.0 3.0 0.00 0.00 0.00 29 1005.2
20260906054506 79 155 2.0 4.0 0.00 0.00 0.00 29 1005.1
20260906053006 78 155 0.0 1.0 0.00 0.00 0.00 30 1005.1
20260906051507 77 155 0.0 0.0 0.00 0.00 0.00 32 1005.0
20260906050006 77 155 0.0 0.0 0.00 0.00 0.00 31 1004.9
20260906044505 78 155 0.0 0.0 0.00 0.00 0.00 30 1005.0
20260906043006 79 155 0.0 0.0 0.00 0.00 0.00 29 1005.0
20260906041505 80 155 0.0 3.0 0.00 0.00 0.00 28 1004.9
20260906040003 80 155 0.0 3.0 0.00 0.00 0.00 28 1004.9
20260906034505 81 155 0.0 3.0 0.00 0.00 0.00 28 1004.8
20260906033001 81 155 0.0 3.0 0.00 0.00 0.00 27 1004.7
20260906031501 81 155 1.0 4.0 0.00 0.00 0.00 27 1004.5
20260906030001 82 155 1.0 4.0 0.00 0.00 0.00 27 1004.3
20260906024623 82 155 1.0 3.0 0.00 0.00 0.00 27 1004.1
20260906023105 83 155 0.0 2.0 0.00 0.00 0.00 28 1004.0
20260906021559 84 155 0.0 2.0 0.00 0.00 0.00 27 1003.8
20260906014557 86 155 0.0 5.0 0.00 0.00 0.00 25 1003.5
20260906013103 86 155 0.0 3.0 0.00 0.00 0.00 25 1003.5
20260906011601 87 155 3.0 5.0 0.00 0.00 0.00 24 1003.6
20260906010128 88 155 1.0 5.0 0.00 0.00 0.00 24 1003.5
20260906004555 89 155 0.0 4.0 0.00 0.00 0.00 24 1003.5
20260906003055 89 155 0.0 5.0 0.00 0.00 0.00 24 1003.5
20260906001604 90 155 3.0 8.0 0.00 0.00 0.00 23 1003.4
20260906000054 91 155 0.0 6.0 0.00 0.00 0.00 23 1003.4
20260905234553 91 155 0.0 8.0 0.00 0.00 0.00 24 1003.4
20260905233052 92 155 2.0 7.0 0.00 0.00 0.00 22 1003.3
20260905231551 93 156 3.0 8.0 0.00 0.00 0.00 21 1003.4